En Direct

LFST 280600Z AUTO 36007KT 9999 FEW046 14/05 Q1022 NOSIG


TAF LFST 280500Z 2806/2906 36008KT 9999 SCT030

Nos Avions

7 avions disponibles et entretenus par un atelier agréé, permettant tous types de vols (formation, promenade, voyage…)

l'école de pilotage

PPL, LAPL, Vol de nuit, SEP… Toutes ces formations sont dispensées par nos instructeurs bénévoles.
Formation Théorique Mermoz via la FFA

Notre Plateforme

Nous sommes basés à l’aéroport de Strasbourg-Entzheim (LFST) en plein coeur de l’Alsace qui permet de voyager rapidement outre Rhin, mais également de profiter des paysages variés

Nos réseaux

Suivez-nous sur les réseaux sociaux